User: anonymous
Location: Oshawa
(43.9000°N, 78.8670°W)
Time: 23:20:54
(UTC-04:00)
Language:

PAYLOAD A - Orbit

View from above orbital plane
View from above orbital plane
View from above satellite
View from above satellite

Ground track
Ground track

The orbit data is extracted from the following two-line orbital elements,

1 27840U 03031A   14113.47860446  .00000130  00000-0  53797-4 0  5228
2 27840 098.2405 144.2061 0097859 347.6712 149.0827 14.38696946567844
Epoch (UTC): 23 April 2014 11:29:11
Eccentricity: 0.0097859
inclination: 98.2405°
perigee height: 693 km
apogee height: 832 km
right ascension of ascending node: 144.2061°
argument of perigee: 347.6712°
revolutions per day: 14.38696946
mean anomaly at epoch: 149.0827°
orbit number at epoch: 56784

The dashed part of the orbit path shows where the satellite is in the earth's shadow,  

DLR